Flag for U.S.A. Weather past 2 weeks in St. George, Utah, U.S.A.

Now
81 °F

Clear.


Feels Like: 79 °F
Forecast: 68 / 98 °F
Wind: No wind

Location: Saint George

Current Time: Jul 28, 2015 at 3:19:13 AM

Latest Report: Jul 28, 2015 at 2:55 AM


Visibility: 10 mi

Pressure: 29.96 "Hg (27.22 "Hg at 842m altitude)

Humidity: 18%

Dew point: 34 °F

Location of St. GeorgeLocation

Historic Weather in St. George — Graph

°F

St. George temperature yesterday

Maximum temperature yesterday: 97 °F (at 3:55 PM)
Minimum temperature yesterday: 73 °F (at 6:35 AM)
Average temperature yesterday: 86 °F

Past Weeks' High & Low Weather Summary

 TemperatureHumidityPressure
High100 °F (Jul 14, 4:55 PM)83% (Jul 19, 4:35 AM)30.21 "Hg (Jul 19, 4:35 AM)
Low64 °F (Jul 19, 4:35 AM)9% (Jul 27, 7:15 PM)29.77 "Hg (Jul 14, 6:35 PM)
Average84 °F29%29.97 "Hg
* Reported Jul 13 2:15 AM — Jul 28 2:15 AM, St. George, Weather by CustomWeather, © 2015

Note: Actual official high and low records may vary slightly from our data, if they occured in-between our weather recording intervals... More about our weather records

Advertising

St. George weather history for previous 24 hours

 ConditionsComfort  
Time TempWeatherWind HumidityBarometerVisibility
2:15 AM
Tue, Jul 28
81 °FClear.12 mph16%29.95 "Hg10 mi
1:55 AM82 °FClear.16 mph17%29.94 "Hg10 mi
1:35 AM81 °FClear.9 mph16%29.94 "Hg10 mi
1:15 AM79 °FClear.8 mph17%29.93 "Hg10 mi
12:55 AM79 °FClear.6 mph17%29.92 "Hg10 mi
12:35 AM82 °FClear.No wind15%29.92 "Hg10 mi
12:15 AM79 °FClear.6 mph17%29.92 "Hg10 mi
11:55 PM
Mon, Jul 27
79 °FClear.3 mph18%29.92 "Hg10 mi
11:35 PM82 °FClear.5 mph15%29.91 "Hg10 mi
11:15 PM81 °FClear.5 mph17%29.91 "Hg10 mi
10:55 PM81 °FClear.7 mph16%29.90 "Hg10 mi
10:35 PM82 °FClear.5 mph15%29.90 "Hg10 mi
9:55 PM88 °FClear.6 mph13%29.89 "Hg10 mi
9:35 PM90 °FSunny.3 mph12%29.88 "Hg10 mi
9:15 PM90 °FSunny.5 mph11%29.87 "Hg10 mi
8:55 PM91 °FSunny.8 mph10%29.87 "Hg10 mi
8:35 PM93 °FSunny.10 mph11%29.86 "Hg10 mi
8:15 PM93 °FSunny.9 mph11%29.86 "Hg10 mi
7:55 PM95 °FSunny.10 mph10%29.85 "Hg10 mi
7:35 PM95 °FSunny.10 mph10%29.85 "Hg10 mi
7:15 PM97 °FSunny.10 mph9%29.85 "Hg10 mi
6:55 PM97 °FSunny.13 mph10%29.84 "Hg10 mi
6:35 PM97 °FSunny.12 mph10%29.84 "Hg10 mi
6:15 PM97 °FSunny.12 mph10%29.85 "Hg10 mi
5:55 PM97 °FSunny.16 mph10%29.85 "Hg10 mi
5:35 PM97 °FSunny.16 mph11%29.85 "Hg10 mi
5:15 PM97 °FSunny.12 mph11%29.86 "Hg10 mi
4:55 PM97 °FSunny.13 mph11%29.86 "Hg10 mi
4:35 PM97 °FSunny.15 mph11%29.86 "Hg10 mi
3:55 PM97 °FSunny.7 mph11%29.87 "Hg10 mi
3:35 PM95 °FSunny.No wind11%29.88 "Hg10 mi
3:15 PM95 °FSunny.7 mph11%29.88 "Hg10 mi
2:55 PM93 °FSunny.9 mph12%29.89 "Hg10 mi
2:35 PM95 °FSunny.6 mph11%29.89 "Hg10 mi
2:15 PM93 °FSunny.5 mph12%29.89 "Hg10 mi
1:55 PM93 °FSunny.No wind12%29.90 "Hg10 mi
1:35 PM93 °FSunny.6 mph12%29.91 "Hg10 mi
1:15 PM91 °FSunny.3 mph13%29.91 "Hg10 mi
12:55 PM91 °FSunny.8 mph13%29.92 "Hg10 mi
12:35 PM90 °FSunny.5 mph14%29.92 "Hg10 mi
12:15 PM90 °FSunny.7 mph14%29.93 "Hg10 mi
11:55 AM90 °FSunny.9 mph14%29.93 "Hg10 mi
11:35 AM88 °FSunny.7 mph15%29.93 "Hg10 mi
11:15 AM88 °FSunny.6 mph16%29.93 "Hg10 mi
10:55 AM88 °FSunny.8 mph15%29.93 "Hg3 mi
10:35 AM86 °FSunny.7 mph17%29.93 "Hg10 mi
10:15 AM84 °FSunny.7 mph18%29.92 "Hg10 mi
9:55 AM84 °FSunny.3 mph18%29.92 "Hg10 mi
9:35 AM82 °FSunny.5 mph19%29.91 "Hg10 mi
9:15 AM82 °FSunny.3 mph19%29.90 "Hg10 mi
8:55 AM81 °FSunny.5 mph20%29.90 "Hg10 mi
8:35 AM81 °FSunny.5 mph20%29.89 "Hg10 mi
8:15 AM81 °FSunny.3 mph18%29.88 "Hg10 mi
7:55 AM79 °FSunny.8 mph20%29.87 "Hg10 mi
7:35 AM79 °FSunny.10 mph20%29.86 "Hg10 mi
7:15 AM75 °FClear.13 mph22%29.86 "Hg10 mi
6:55 AM75 °FClear.14 mph22%29.85 "Hg10 mi
6:35 AM73 °FClear.13 mph23%29.85 "Hg10 mi
6:15 AM75 °FClear.9 mph22%29.85 "Hg10 mi
5:55 AM75 °FClear.7 mph22%29.85 "Hg10 mi
5:35 AM75 °FClear.12 mph22%29.84 "Hg10 mi
5:15 AM75 °FClear.12 mph21%29.84 "Hg10 mi
4:55 AM75 °FClear.9 mph21%29.84 "Hg10 mi
4:35 AM75 °FClear.9 mph19%29.83 "Hg10 mi
4:15 AM77 °FClear.9 mph18%29.83 "Hg10 mi
3:55 AM75 °FClear.14 mph19%29.83 "Hg10 mi
3:35 AM75 °FClear.12 mph19%29.83 "Hg10 mi
3:15 AM75 °FClear.13 mph19%29.83 "Hg10 mi
Weather by CustomWeather, © 2015

See weather overviewHow to use our weather pages